Cloud_Cover
5 67 89 84 100 89 93 96 5 0 0 0 0 2 5 7 32 6 34 5 57 46 14 6 5 100 100 14 7 5 10 22 100 100 85 53 3 1 0 0 0 0 0 0 0 0 0 0 0
0 56 99 71 33 10 89 99 100 3 0 0 0 0 4 46 15 98 60 6 10 83 93 89 100 100 36 6 40 38 22 5 50 96 98 43 9 5 0 0 0 0 0 0 0 0 0 0 0
0 4 54 95 10 84 100 100 100 25 3 0 1 4 3 6 96 66 54 7 17 6 13 43 39 10 5 31 31 5 22 94 100 100 78 21 6 5 0 0 0 0 0 0 0 0 0 0 0
0 0 5 5 8 100 100 100 100 100 40 28 5 32 3 62 82 100 57 14 9 25 5 5 5 6 28 6 11 93 100 100 100 100 6 5 5 5 2 5 74 12 2 0 0 5 5 5 5
0 0 3 0 36 100 100 100 100 100 85 96 100 85 36 79 96 100 30 10 5 5 5 5 5 27 6 10 100 100 100 97 99 74 13 5 5 5 30 100 99 9 5 0 0 0 2 4 4
0 0 0 0 1 39 82 96 100 100 99 92 100 85 68 86 100 90 48 93 35 5 5 31 25 6 5 6 100 100 100 100 100 100 100 100 5 5 23 100 100 8 0 0 0 0 0 0 0
0 0 0 0 0 4 9 100 100 100 100 92 100 100 100 100 88 78 45 7 5 6 61 97 68 94 99 100 100 100 100 100 100 100 86 94 72 5 5 64 41 5 3 0 0 0 0 0 0
0 0 0 0 0 0 2 100 100 100 79 100 100 100 100 100 71 74 38 6 49 100 95 74 100 100 100 100 100 100 100 100 100 100 70 38 7 22 5 5 5 5 5 0 0 0 0 0 0
0 0 0 0 0 1 2 58 100 76 99 30 100 100 84 96 89 5 37 100 100 100 48 48 41 95 99 99 100 100 100 99 88 90 6 5 5 5 5 5 4 5 5 5 5 4 3 0 0
0 0 0 0 0 2 0 19 100 100 24 98 96 48 86 99 80 49 100 100 100 72 91 100 99 100 100 100 100 100 7 87 56 65 11 5 5 5 5 5 5 5 6 25 5 5 5 0 0
0 0 0 0 0 0 4 5 100 100 51 71 100 100 100 100 96 100 100 97 96 92 98 70 66 53 38 59 65 64 38 5 5 6 5 5 5 5 5 5 5 9 20 5 5 5 5 0 0
0 0 0 0 0 0 1 5 12 28 100 100 96 97 100 100 100 100 100 100 90 84 68 100 44 8 71 65 5 5 64 39 5 11 32 17 56 5 5 5 5 12 5 23 6 5 0 0 0
0 1 0 0 0 0 0 4 89 24 50 100 90 97 93 100 100 100 93 53 16 100 100 100 84 33 34 100 100 79 86 81 85 98 90 15 5 13 5 29 74 7 30 6 5 0 0 0 0
19 0 0 0 2 0 0 1 54 81 5 96 99 100 95 100 92 100 97 38 27 66 54 99 100 24 100 100 100 100 100 100 100 100 60 5 8 5 6 22 49 8 27 14 1 3 0 0 0
80 6 2 0 5 5 5 0 5 73 18 52 100 100 100 100 91 98 8 22 100 100 98 82 98 24 6 87 100 100 100 100 100 88 45 52 71 100 100 88 53 87 39 5 5 0 0 0 0
60 5 5 0 0 5 5 4 0 100 100 100 100 100 100 100 100 69 9 98 100 100 100 100 100 100 9 28 100 100 100 100 100 100 82 68 96 100 100 100 100 59 17 5 3 5 0 0 0
99 71 25 2 0 0 4 5 2 36 100 100 100 100 100 100 100 96 6 98 100 100 100 100 100 100 58 100 66 80 96 98 89 20 76 100 100 100 100 100 98 72 5 5 5 2 0 0 0
98 85 9 5 0 0 0 3 5 36 95 100 100 100 100 100 100 60 64 100 100 100 100 100 100 99 100 82 100 94 98 100 100 95 100 100 100 100 100 100 74 10 5 5 4 0 0 0 0
99 38 51 5 0 0 0 0 0 41 100 100 100 100 100 100 100 26 100 100 100 100 100 100 100 100 86 53 71 74 87 100 100 100 100 100 100 100 100 11 5 5 5 1 0 0 0 0 0
87 100 60 11 0 0 0 0 0 2 98 95 100 100 100 100 80 31 97 100 100 100 100 100 100 100 100 100 97 11 31 46 69 82 91 86 66 10 5 7 5 4 0 0 0 0 0 0 0
22 100 100 61 2 0 0 0 0 0 37 100 100 100 100 100 48 11 37 99 98 100 100 100 100 100 100 100 100 12 5 10 69 68 68 48 20 5 12 5 0 0 0 0 0 0 0 0 0
55 61 44 6 5 2 0 0 0 0 0 0 41 100 100 100 98 86 18 56 83 4 93 100 100 100 100 100 93 5 5 14 57 32 19 5 6 7 0 0 0 0 0 0 0 0 0 0 0
5 5 93 36 5 7 3 0 0 0 0 0 0 0 20 19 100 100 100 85 24 6 4 4 100 98 100 91 1 2 5 5 5 5 5 5 0 0 0 0 0 0 0 0 0 0 0 0 1
49 12 100 68 12 5 58 34 0 0 0 0 0 0 0 5 98 100 100 100 41 49 14 0 39 3 0 0 0 0 0 0 0 0 0 0 0 0 0 0 0 0 0 0 0 0 0 1 5
89 99 100 99 62 72 11 27 0 0 0 0 0 0 0 1 4 90 58 6 9 100 5 0 0 0 0 0 0 0 0 0 0 0 0 0 0 0 0 0 0 0 0 0 0 0 1 7 5
78 27 69 100 99 79 5 1 0 0 0 0 0 0 2 2 0 5 10 5 56 100 5 1 0 0 0 0 0 0 0 0 0 0 0 0 0 0 0 0 0 0 0 0 1 5 10 27 5
31 29 11 10 39 72 10 0 0 0 0 0 0 0 0 0 0 5 5 14 99 100 99 16 0 0 0 0 0 0 0 0 0 0 0 0 0 0 0 0 0 0 0 4 5 39 33 3 0
64 25 40 81 31 5 5 5 1 0 0 0 0 0 0 0 3 2 5 100 100 100 100 61 0 0 0 0 0 0 4 5 5 4 0 2 0 0 0 0 0 0 5 5 6 3 0 0 0
23 71 11 24 5 5 3 1 2 0 0 0 0 0 0 5 13 5 96 100 100 100 95 10 0 0 0 0 0 5 5 5 5 5 5 0 0 0 1 5 5 5 18 4 0 0 0 0 0
5 62 11 94 38 5 3 0 0 0 0 0 0 0 0 0 5 7 100 100 100 100 100 60 0 0 3 5 2 5 5 5 5 5 2 5 5 5 16 5 5 5 3 0 0 0 0 0 0